Regional Weather Roundup
Issued by NWS

Home | Current Version | Previous Version | Graphics & Text | Print | Product List | Glossary On
Versions: 1 2 3 4 5 6 7 8 9 10 11 12 13 14 15 16 17 18 19 20 21 22 23 24 25 26 27 28 29 30 31 32 33 34 35 36 37 38 39 40 41 42 43 44 45 46 47 48 49 50
000
ASUS43 KMKX 290900
RWRWI

WISCONSIN REGIONAL WEATHER ROUNDUP
NATIONAL WEATHER SERVICE MILWAUKEE/SULLIVAN WI
400 AM CDT MON AUG 29 2016

NOTE: "FAIR" INDICATES FEW OR NO CLOUDS BELOW 12,000 FEET WITH NO
SIGNIFICANT WEATHER AND/OR OBSTRUCTIONS TO VISIBILITY.

WIZ001-002-006>008-014>016-023>028-291000-
NORTHWEST WISCONSIN

CITY           SKY/WX    TMP DP  RH WIND       PRES   REMARKS
SUPERIOR ARPT  CLOUDY    64  64 100 N5        30.13R
ASHLAND        CLOUDY    62  61  96 CALM      30.16R
HAYWARD        CLOUDY    68  65  90 S6        30.17S
SIREN          CLOUDY    68  66  94 S7        30.15R
CUMBERLAND     CLOUDY    64  63  94 E5        30.19R
RICE LAKE      CLOUDY    66  64  93 CALM      30.19S
CHETEK         NOT AVBL
LADYSMITH      CLOUDY    65  64  95 SE5       30.21S
EAU CLAIRE     NOT AVBL
MENOMONIE      CLEAR     65  64  99 CALM      30.18S
NEW RICHMOND   CLEAR     67  67  99 CALM      30.16R
OSCEOLA        CLEAR     69  69 100 E7        30.18R
$$

WIZ003>005-009-010-017-018-291000-
NORTH CENTRAL WISCONSIN

CITY           SKY/WX    TMP DP  RH WIND       PRES   REMARKS
MANITOWISH WTR NOT AVBL
ARBOR VITAE    CLOUDY    63  62  95 CALM      30.23S
WOODRUFF       CLOUDY    63  62  95 CALM      30.23S
RHINELANDER    CLOUDY    62  62 100 S3        30.25S
EAGLE RIVER    CLOUDY    61  61 100 CALM      30.24S
LAND O LAKES   CLOUDY    54  54 100 CALM      30.25S
PHILLIPS       CLOUDY    63  63  99 CALM      30.21S
TOMAHAWK       FOG       59  58  97 CALM      30.24S VSB 1
MEDFORD        CLOUDY    64  64 100 SE6       30.22F
MERRILL        PTCLDY    62  62 100 CALM      30.24F
$$

WIZ029-030-035-036-043>047-291000-
CENTRAL WISCONSIN

CITY           SKY/WX    TMP DP  RH WIND       PRES   REMARKS
WAUSAU         PTCLDY    63  62  97 SE5       30.22F
MOSINEE        CLOUDY    63  63 100 SE3       30.26R
MARSHFIELD     PTCLDY    66  63  90 E3        30.22S
STEVENS POINT  CLOUDY    63  62  99 CALM      30.25R
WAUPACA        CLOUDY    68  67  98 CALM      30.24R FOG
WAUTOMA        CLOUDY    66  65  96 CALM      30.24S
WISC RAPIDS    MOCLDY    68  67  96 SE7       30.23F
CAMP DOUGLAS   FOG       61  61 100 E3        30.22R VSB 3/4
$$

WIZ011>013-019>022-031-037>040-048>050-291000-
NORTHEAST WISCONSIN

CITY           SKY/WX    TMP DP  RH WIND       PRES   REMARKS
ANTIGO         CLOUDY    62  62 100 CALM      30.26F FOG
SHAWANO        CLOUDY    67  63  87 CALM      30.25S
OCONTO         NOT AVBL
STURGEON BAY   CLOUDY    60  60 100 SE3       30.26R
GREEN BAY      CLOUDY    61  61 100 CALM      30.24S FOG
MANITOWOC      FOG       57  57 100 NW6       30.25S VSB 1/4
APPLETON       MOCLDY    66  64  94 CALM      30.23R
CLINTONVILLE   CLOUDY    63  63 100 CALM      30.24S FOG
OSHKOSH        CLOUDY    66  63  90 SW3       30.24R
$$

WIZ032>034-041-042-053>061-291000-
SOUTHWEST WISCONSIN

CITY           SKY/WX    TMP DP  RH WIND       PRES   REMARKS
LA CROSSE      CLEAR     68  67  96 E3        30.18R
SPARTA         CLEAR     59  59 100 CALM      30.21R
VIROQUA        CLEAR     66  66 100 CALM      30.22R
BOSCOBEL       FOG       68  67  96 CALM      30.21R VSB<1/4
PRAIRIE DU CHI CLEAR     67  66  94 E3        30.20R
PLATTEVILLE    CLEAR     67  67 100 CALM      30.22R
$$

WIZ056-057-062-063-064-067-068-291000-
SOUTH CENTRAL WISCONSIN

CITY           SKY/WX    TMP DP  RH WIND       PRES   REMARKS
REEDSBURG      NOT AVBL
BARABOO/DELLS  CLEAR     63  61  95 SE5       30.22R FOG
LONE ROCK      MOCLDY    64  63  94 NE3       30.22R FOG
MINERAL POINT  CLEAR     68  68 100 SE3       30.23R
MADISON        CLEAR     68  66  93 E5        30.22S
MIDDLETON      CLOUDY    70  70 100 SE5       30.22S
WATERTOWN      MOCLDY    65  65 100 CALM      30.23R
MONROE         FOG       68  66  94 E3        30.22S VSB 1/4
JANESVILLE     CLEAR     68  66  94 CALM      30.22R FOG
$$

WIZ051-052-058>065-066-070>072-291000-
SOUTHEAST WISCONSIN

CITY           SKY/WX    TMP DP  RH WIND       PRES   REMARKS
MILWAUKEE      CLOUDY    67  66  97 CALM      30.23R FOG
WAUKESHA       FOG       61  61 100 CALM      30.25R VSB 1/4
MILWAUKEE/TIMM PTCLDY    63  59  88 CALM      30.24R
RACINE         PTCLDY    66  64  93 CALM      30.25R FOG
BURLINGTON     FOG       62  61  99 CALM      30.23R VSB 1/2
KENOSHA        CLEAR     64  63  96 NE3       30.24R FOG
FOND DU LAC    MOCLDY    66  63  90 S6        30.24R
SHEBOYGAN      FOG       58  58 100 CALM      30.24S VSB 3/4
WEST BEND      PTCLDY    61  61 100 CALM      30.24S
JUNEAU         CLOUDY    65  64  96 CALM      30.25R
$$

LSZ147-162-291000-
LAKE SUPERIOR

STATION/POSITION TIME  TEMP    WIND        PRES    WAVE
                       AIR SEA DIR/SP/G            HT/PER
                 (UTC) (F)     (DEG/KT/KT) (MB)    (FT/S)
W MID LAKE BUOY  0750   68 67  150/ 14/ 16 1019.9F   1/ 3
DEVILS ISLAND    0800   67     150/  4/  6 1020.5S
PORT WING        0800   65     180/  3/  8 1020.0F
SAXON HARBOR     0800   68     200/  7/ 12 1020.3
$$

LMZ867-665-643>646-291000-
LAKE MICHIGAN

STATION/POSITION TIME  TEMP    WIND        PRES    WAVE
                       AIR SEA DIR/SP/G            HT/PER
                 (UTC) (F)     (DEG/KT/KT) (MB)    (FT/S)
CHAMBERS ISLAND  0800   61     230/  1/  1 1024.0
N MID LAKE BUOY  0750   70 71  130/  8/  8 1023.7R   0
NORTHPORT PIER   0800   65     210/  2/  4 1024.0R
KEWAUNEE LAKESHO 0800   60     290/  2/  3 1023.3R
SHEBOYGAN LAKESH 0800   63      30/  4/  5 1023.6R
PORT WASHINGTON  0800   64     290/  2/  3 1024.0
ATWATER BUOY     0800   65      10/  6/  8   N/A
MILWAUKEE LAKESH 0810   67      30/  7/  7   N/A
S MID LAKE BUOY  0750   73 75   90/  6/  8 1022.7F   1
KENOSHA   LAKESH 0800   70      10/  6/  6 1023.0R
$$

TC  - TEMPERATURE IN CELSIUS
VSB - VISIBILITY IN STATUTE MILES
WCI - WIND CHILL INDEX
HX  - HEAT INDEX





USA.gov is the U.S. government's official web portal to all federal, state and local government web resources and services.